Zurück zum Katalog

STARLINK-36531

AktivKommunikationVLEO
NORAD 67513·PAYLOAD·🇺🇸 United States

Gestartet Jan 18, 2026 von Cape Canaveral Space Force Station

Loading…

Nächste Überflüge (nächste 24 Stunden)

TLE

AktuellSource: CelesTrak SupGP

Epoche: Sep 14, 2026, 22:37 UTC

1 67513C 26012W   26257.94284722 -.00010924  00000+0 -39574-3 0  2578
2 67513  43.0008 325.6981 0001751 267.6885 123.1566 15.27575944    13

Verfolge STARLINK-36531 in Echtzeit mit AllMySat

Download on the App Store